Location: Hurstbourne Priors
(51.2000°N, 1.3667°W)
Time: 21:31:12
(UTC+00:00)

GEOS 3 Rocket - Pass Details

Date: 09 April 2020
Orbit: 774 x 845 km, 115.0° (Epoch: 02 June)

Event Time Altitude Azimuth Distance (km) Brightness Sun altitude
Rises 19:27:44 0° 152° (SSE) 3,275 6.3 -6.1°
Reaches altitude 10° 19:30:02 10° 157° (SSE) 2,359 5.6 -6.4°
Maximum altitude 19:35:02 52° 233° (SW) 995 4.3 -7.2°
Drops below altitude 10° 19:40:09 10° 310° (NW) 2,418 7.5 -7.9°
Sets 19:42:33 0° 316° (NW) 3,365 8.3 -8.2°
